owner,sensor,date,latitude,longitude,vertical_datum,wind_speed,wind_to_direction,wind_speed_of_gust,qcFlag 
TCOON,ioos:station:TCOON:524:1,2019-06-01T00:00:00Z,29.8672,-93.9310,0.0,1.0,37.0,4.5,'11111222,11111222,11111222' 
TCOON,ioos:station:TCOON:524:1,2019-06-01T00:06:00Z,29.8672,-93.9310,0.0,2.2,47.0,4.5,'11111222,11111222,11111222' 
TCOON,ioos:station:TCOON:524:1,2019-06-01T00:12:00Z,29.8672,-93.9310,0.0,1.7,31.0,3.9,'11111222,11111222,11111222' 
TCOON,ioos:station:TCOON:524:1,2019-06-01T00:18:00Z,29.8672,-93.9310,0.0,1.9,36.0,3.8,'11111222,11111222,11111222' 
TCOON,ioos:station:TCOON:524:1,2019-06-01T00:24:00Z,29.8672,-93.9310,0.0,1.9,36.0,3.8,'11111222,11111222,11111222' 
TCOON,ioos:station:TCOON:524:1,2019-06-01T00:30:00Z,29.8672,-93.9310,0.0,1.7,55.0,3.1,'11111222,11111222,11111222' 
TCOON,ioos:station:TCOON:524:1,2019-06-01T00:36:00Z,29.8672,-93.9310,0.0,2.4,69.0,4.4,'11111222,11111222,11111222' 
TCOON,ioos:station:TCOON:524:1,2019-06-01T00:42:00Z,29.8672,-93.9310,0.0,2.4,69.0,4.3,'11111222,11111222,11111222' 
TCOON,ioos:station:TCOON:524:1,2019-06-01T00:48:00Z,29.8672,-93.9310,0.0,2.2,72.0,3.7,'11111222,11111222,11111222' 
TCOON,ioos:station:TCOON:524:1,2019-06-01T00:54:00Z,29.8672,-93.9310,0.0,2.7,80.0,4.0,'11111222,11111222,11111222' 
TCOON,ioos:station:TCOON:524:1,2019-06-01T01:00:00Z,29.8672,-93.9310,0.0,2.6,88.0,4.1,'11111222,11111222,11111222' 
TCOON,ioos:station:TCOON:524:1,2019-06-01T01:06:00Z,29.8672,-93.9310,0.0,2.1,56.0,3.1,'11111222,11111222,11111222' 
TCOON,ioos:station:TCOON:524:1,2019-06-01T01:12:00Z,29.8672,-93.9310,0.0,1.3,60.0,3.0,'11111222,11111222,11111222' 
TCOON,ioos:station:TCOON:524:1,2019-06-01T01:18:00Z,29.8672,-93.9310,0.0,2.2,95.0,3.1,'11111222,11111222,11111222' 
TCOON,ioos:station:TCOON:524:1,2019-06-01T01:24:00Z,29.8672,-93.9310,0.0,2.2,95.0,3.1,'11111222,11111222,11111222' 
TCOON,ioos:station:TCOON:524:1,2019-06-01T01:30:00Z,29.8672,-93.9310,0.0,1.5,91.0,2.9,'11111222,11111222,11111222' 
TCOON,ioos:station:TCOON:524:1,2019-06-01T01:36:00Z,29.8672,-93.9310,0.0,1.9,96.0,2.9,'11111222,11111222,11111222' 
TCOON,ioos:station:TCOON:524:1,2019-06-01T01:42:00Z,29.8672,-93.9310,0.0,2.3,96.0,3.4,'11111222,11111222,11111222' 
TCOON,ioos:station:TCOON:524:1,2019-06-01T01:48:00Z,29.8672,-93.9310,0.0,3.0,69.0,3.7,'11111222,11111222,11111222' 
TCOON,ioos:station:TCOON:524:1,2019-06-01T01:54:00Z,29.8672,-93.9310,0.0,2.6,83.0,3.7,'11111222,11111222,11111222' 
TCOON,ioos:station:TCOON:524:1,2019-06-01T02:00:00Z,29.8672,-93.9310,0.0,1.1,50.0,3.8,'11111222,11111222,11111222' 
TCOON,ioos:station:TCOON:524:1,2019-06-01T02:06:00Z,29.8672,-93.9310,0.0,1.7,43.0,3.1,'11111222,11111222,11111222' 
TCOON,ioos:station:TCOON:524:1,2019-06-01T02:12:00Z,29.8672,-93.9310,0.0,1.0,28.0,3.0,'11111222,11111222,11111222' 
TCOON,ioos:station:TCOON:524:1,2019-06-01T02:18:00Z,29.8672,-93.9310,0.0,1.3,31.0,2.8,'11111222,11111222,11111222' 
TCOON,ioos:station:TCOON:524:1,2019-06-01T02:24:00Z,29.8672,-93.9310,0.0,1.3,31.0,2.8,'11111222,11111222,11111222' 
TCOON,ioos:station:TCOON:524:1,2019-06-01T02:30:00Z,29.8672,-93.9310,0.0,2.0,63.0,3.1,'11111222,11111222,11111222' 
TCOON,ioos:station:TCOON:524:1,2019-06-01T02:36:00Z,29.8672,-93.9310,0.0,0.4,42.0,2.4,'11111222,11111222,11111222' 
TCOON,ioos:station:TCOON:524:1,2019-06-01T02:42:00Z,29.8672,-93.9310,0.0,1.2,4.0,1.4,'11111222,11111222,11111222' 
TCOON,ioos:station:TCOON:524:1,2019-06-01T02:48:00Z,29.8672,-93.9310,0.0,1.1,15.0,1.8,'11111222,11111222,11111222' 
TCOON,ioos:station:TCOON:524:1,2019-06-01T02:54:00Z,29.8672,-93.9310,0.0,0.6,38.0,1.2,'11111222,11111222,11111222' 
TCOON,ioos:station:TCOON:524:1,2019-06-01T03:00:00Z,29.8672,-93.9310,0.0,0.6,33.0,1.0,'11111222,11111222,11111222' 
TCOON,ioos:station:TCOON:524:1,2019-06-01T03:06:00Z,29.8672,-93.9310,0.0,0.5,34.0,1.1,'11111222,11111222,11111222' 
TCOON,ioos:station:TCOON:524:1,2019-06-01T03:12:00Z,29.8672,-93.9310,0.0,0.3,355.0,0.8,'11111222,11111222,11111222' 
TCOON,ioos:station:TCOON:524:1,2019-06-01T03:18:00Z,29.8672,-93.9310,0.0,0.6,36.0,0.7,'11111222,11111222,11111222' 
TCOON,ioos:station:TCOON:524:1,2019-06-01T03:24:00Z,29.8672,-93.9310,0.0,0.6,36.0,0.7,'11111222,11111222,11111222' 
TCOON,ioos:station:TCOON:524:1,2019-06-01T03:30:00Z,29.8672,-93.9310,0.0,0.3,341.0,0.8,'11111222,11111222,11111222' 
TCOON,ioos:station:TCOON:524:1,2019-06-01T03:36:00Z,29.8672,-93.9310,0.0,0.6,300.0,0.8,'11111222,11111222,11111222' 
TCOON,ioos:station:TCOON:524:1,2019-06-01T03:42:00Z,29.8672,-93.9310,0.0,1.3,324.0,1.8,'11111222,11111222,11111222' 
TCOON,ioos:station:TCOON:524:1,2019-06-01T03:48:00Z,29.8672,-93.9310,0.0,2.5,343.0,2.8,'11111222,11111222,11111222' 
TCOON,ioos:station:TCOON:524:1,2019-06-01T03:54:00Z,29.8672,-93.9310,0.0,2.7,346.0,3.0,'11111222,11111222,11111222' 
TCOON,ioos:station:TCOON:524:1,2019-06-01T04:00:00Z,29.8672,-93.9310,0.0,2.6,348.0,3.5,'11111222,11111222,11111222' 
TCOON,ioos:station:TCOON:524:1,2019-06-01T04:06:00Z,29.8672,-93.9310,0.0,2.3,346.0,2.9,'11111222,11111222,11111222' 
TCOON,ioos:station:TCOON:524:1,2019-06-01T04:12:00Z,29.8672,-93.9310,0.0,2.4,358.0,3.0,'11111222,11111222,11111222' 
TCOON,ioos:station:TCOON:524:1,2019-06-01T04:18:00Z,29.8672,-93.9310,0.0,1.6,346.0,2.8,'11111222,11111222,11111222' 
TCOON,ioos:station:TCOON:524:1,2019-06-01T04:24:00Z,29.8672,-93.9310,0.0,1.6,346.0,2.8,'11111222,11111222,11111222' 
TCOON,ioos:station:TCOON:524:1,2019-06-01T04:30:00Z,29.8672,-93.9310,0.0,1.3,12.0,2.8,'11111222,11111222,11111222' 
TCOON,ioos:station:TCOON:524:1,2019-06-01T04:36:00Z,29.8672,-93.9310,0.0,1.6,360.0,2.3,'11111222,11144222,11111222' 
TCOON,ioos:station:TCOON:524:1,2019-06-01T04:42:00Z,29.8672,-93.9310,0.0,1.8,10.0,2.3,'11111222,11111222,11111222' 
TCOON,ioos:station:TCOON:524:1,2019-06-01T04:48:00Z,29.8672,-93.9310,0.0,1.6,343.0,1.9,'11111222,11111222,11111222' 
TCOON,ioos:station:TCOON:524:1,2019-06-01T04:54:00Z,29.8672,-93.9310,0.0,2.0,359.0,2.7,'11111222,11111222,11111222' 
TCOON,ioos:station:TCOON:524:1,2019-06-01T05:00:00Z,29.8672,-93.9310,0.0,2.1,16.0,2.7,'11111222,11111222,11111222' 
TCOON,ioos:station:TCOON:524:1,2019-06-01T05:06:00Z,29.8672,-93.9310,0.0,2.3,5.0,2.8,'11111222,11111222,11111222' 
TCOON,ioos:station:TCOON:524:1,2019-06-01T05:12:00Z,29.8672,-93.9310,0.0,1.7,349.0,2.5,'11111222,11111222,11111222' 
TCOON,ioos:station:TCOON:524:1,2019-06-01T05:18:00Z,29.8672,-93.9310,0.0,1.9,349.0,2.5,'11111222,11111222,11111222' 
TCOON,ioos:station:TCOON:524:1,2019-06-01T05:24:00Z,29.8672,-93.9310,0.0,1.9,349.0,2.5,'11111222,11111222,11111222' 
TCOON,ioos:station:TCOON:524:1,2019-06-01T05:30:00Z,29.8672,-93.9310,0.0,1.8,355.0,2.3,'11111222,11111222,11111222' 
TCOON,ioos:station:TCOON:524:1,2019-06-01T05:36:00Z,29.8672,-93.9310,0.0,2.2,11.0,2.6,'11111222,11111222,11111222' 
TCOON,ioos:station:TCOON:524:1,2019-06-01T05:42:00Z,29.8672,-93.9310,0.0,2.4,355.0,2.7,'11111222,11111222,11111222' 
TCOON,ioos:station:TCOON:524:1,2019-06-01T05:48:00Z,29.8672,-93.9310,0.0,2.6,0.0,3.0,'11111222,11111222,11111222' 
TCOON,ioos:station:TCOON:524:1,2019-06-01T05:54:00Z,29.8672,-93.9310,0.0,2.3,6.0,2.8,'11111222,11111222,11111222' 
TCOON,ioos:station:TCOON:524:1,2019-06-01T06:00:00Z,29.8672,-93.9310,0.0,2.1,353.0,2.6,'11111222,11111222,11111222' 
TCOON,ioos:station:TCOON:524:1,2019-06-01T06:06:00Z,29.8672,-93.9310,0.0,1.9,354.0,2.4,'11111222,11111222,11111222' 
TCOON,ioos:station:TCOON:524:1,2019-06-01T06:12:00Z,29.8672,-93.9310,0.0,2.2,8.0,2.8,'11111222,11111222,11111222' 
TCOON,ioos:station:TCOON:524:1,2019-06-01T06:18:00Z,29.8672,-93.9310,0.0,2.0,353.0,2.5,'11111222,11111222,11111222' 
TCOON,ioos:station:TCOON:524:1,2019-06-01T06:24:00Z,29.8672,-93.9310,0.0,2.0,353.0,2.5,'11111222,11111222,11111222' 
TCOON,ioos:station:TCOON:524:1,2019-06-01T06:30:00Z,29.8672,-93.9310,0.0,2.5,346.0,3.0,'11111222,11111222,11111222' 
TCOON,ioos:station:TCOON:524:1,2019-06-01T06:36:00Z,29.8672,-93.9310,0.0,1.8,329.0,2.4,'11111222,11111222,11111222' 
TCOON,ioos:station:TCOON:524:1,2019-06-01T06:42:00Z,29.8672,-93.9310,0.0,1.8,354.0,2.2,'11111222,11111222,11111222' 
TCOON,ioos:station:TCOON:524:1,2019-06-01T06:48:00Z,29.8672,-93.9310,0.0,1.6,359.0,2.5,'11111222,11111222,11111222' 
TCOON,ioos:station:TCOON:524:1,2019-06-01T06:54:00Z,29.8672,-93.9310,0.0,1.9,357.0,2.4,'11111222,11111222,11111222' 
TCOON,ioos:station:TCOON:524:1,2019-06-01T07:00:00Z,29.8672,-93.9310,0.0,1.1,21.0,2.4,'11111222,11111222,11111222' 
TCOON,ioos:station:TCOON:524:1,2019-06-01T07:06:00Z,29.8672,-93.9310,0.0,1.5,358.0,1.9,'11111222,11111222,11111222' 
TCOON,ioos:station:TCOON:524:1,2019-06-01T07:12:00Z,29.8672,-93.9310,0.0,1.6,18.0,2.0,'11111222,11111222,11111222' 
TCOON,ioos:station:TCOON:524:1,2019-06-01T07:18:00Z,29.8672,-93.9310,0.0,1.4,20.0,1.7,'11111222,11111222,11111222' 
TCOON,ioos:station:TCOON:524:1,2019-06-01T07:24:00Z,29.8672,-93.9310,0.0,1.4,20.0,1.7,'11111222,11111222,11111222' 
TCOON,ioos:station:TCOON:524:1,2019-06-01T07:30:00Z,29.8672,-93.9310,0.0,1.7,350.0,2.0,'11111222,11111222,11111222' 
TCOON,ioos:station:TCOON:524:1,2019-06-01T07:36:00Z,29.8672,-93.9310,0.0,1.1,24.0,2.3,'11111222,11111222,11111222' 
TCOON,ioos:station:TCOON:524:1,2019-06-01T07:42:00Z,29.8672,-93.9310,0.0,0.7,31.0,1.7,'11111222,11111222,11111222' 
TCOON,ioos:station:TCOON:524:1,2019-06-01T07:48:00Z,29.8672,-93.9310,0.0,0.8,64.0,2.0,'11111222,11111222,11111222' 
TCOON,ioos:station:TCOON:524:1,2019-06-01T07:54:00Z,29.8672,-93.9310,0.0,1.0,38.0,1.4,'11111222,11111222,11111222' 
TCOON,ioos:station:TCOON:524:1,2019-06-01T08:00:00Z,29.8672,-93.9310,0.0,0.8,49.0,1.4,'11111222,11111222,11111222' 
TCOON,ioos:station:TCOON:524:1,2019-06-01T08:06:00Z,29.8672,-93.9310,0.0,0.6,54.0,0.9,'11111222,11111222,11111222' 
TCOON,ioos:station:TCOON:524:1,2019-06-01T08:12:00Z,29.8672,-93.9310,0.0,1.0,11.0,1.4,'11111222,11111222,11111222' 
TCOON,ioos:station:TCOON:524:1,2019-06-01T08:18:00Z,29.8672,-93.9310,0.0,0.7,35.0,1.4,'11111222,11111222,11111222' 
TCOON,ioos:station:TCOON:524:1,2019-06-01T08:24:00Z,29.8672,-93.9310,0.0,0.7,35.0,1.4,'11111222,11111222,11111222' 
TCOON,ioos:station:TCOON:524:1,2019-06-01T08:30:00Z,29.8672,-93.9310,0.0,0.8,19.0,1.5,'11111222,11111222,11111222' 
TCOON,ioos:station:TCOON:524:1,2019-06-01T08:36:00Z,29.8672,-93.9310,0.0,0.4,24.0,0.9,'11111222,11111222,11111222' 
TCOON,ioos:station:TCOON:524:1,2019-06-01T08:42:00Z,29.8672,-93.9310,0.0,0.9,22.0,1.2,'11111222,11111222,11111222' 
TCOON,ioos:station:TCOON:524:1,2019-06-01T08:48:00Z,29.8672,-93.9310,0.0,0.8,345.0,1.2,'11111222,11111222,11111222' 
TCOON,ioos:station:TCOON:524:1,2019-06-01T08:54:00Z,29.8672,-93.9310,0.0,1.1,331.0,1.3,'11111222,11111222,11111222' 
TCOON,ioos:station:TCOON:524:1,2019-06-01T09:00:00Z,29.8672,-93.9310,0.0,1.4,354.0,1.6,'11111222,11111222,11111222' 
TCOON,ioos:station:TCOON:524:1,2019-06-01T09:06:00Z,29.8672,-93.9310,0.0,1.4,348.0,1.7,'11111222,11111222,11111222' 
TCOON,ioos:station:TCOON:524:1,2019-06-01T09:12:00Z,29.8672,-93.9310,0.0,0.6,47.0,1.7,'11111222,11111222,11111222' 
TCOON,ioos:station:TCOON:524:1,2019-06-01T09:18:00Z,29.8672,-93.9310,0.0,1.7,329.0,2.1,'11111222,11111222,11111222' 
TCOON,ioos:station:TCOON:524:1,2019-06-01T09:24:00Z,29.8672,-93.9310,0.0,1.7,329.0,2.1,'11111222,11111222,11111222' 
TCOON,ioos:station:TCOON:524:1,2019-06-01T09:30:00Z,29.8672,-93.9310,0.0,0.8,16.0,1.5,'11111222,11111222,11111222' 
TCOON,ioos:station:TCOON:524:1,2019-06-01T09:36:00Z,29.8672,-93.9310,0.0,1.5,344.0,2.1,'11111222,11111222,11111222' 
TCOON,ioos:station:TCOON:524:1,2019-06-01T09:42:00Z,29.8672,-93.9310,0.0,1.0,21.0,1.8,'11111222,11111222,11111222' 
TCOON,ioos:station:TCOON:524:1,2019-06-01T09:48:00Z,29.8672,-93.9310,0.0,1.5,6.0,1.8,'11111222,11111222,11111222' 
TCOON,ioos:station:TCOON:524:1,2019-06-01T09:54:00Z,29.8672,-93.9310,0.0,1.7,345.0,2.2,'11111222,11111222,11111222' 
TCOON,ioos:station:TCOON:524:1,2019-06-01T10:00:00Z,29.8672,-93.9310,0.0,1.1,41.0,2.1,'11111222,11111222,11111222' 
TCOON,ioos:station:TCOON:524:1,2019-06-01T10:06:00Z,29.8672,-93.9310,0.0,1.6,360.0,1.8,'11111222,11144222,11111222' 
TCOON,ioos:station:TCOON:524:1,2019-06-01T10:12:00Z,29.8672,-93.9310,0.0,2.2,347.0,2.7,'11111222,11111222,11111222' 
TCOON,ioos:station:TCOON:524:1,2019-06-01T10:18:00Z,29.8672,-93.9310,0.0,2.0,0.0,2.4,'11111222,11111222,11111222' 
TCOON,ioos:station:TCOON:524:1,2019-06-01T10:24:00Z,29.8672,-93.9310,0.0,2.0,0.0,2.4,'11111222,11111222,11111222' 
TCOON,ioos:station:TCOON:524:1,2019-06-01T10:30:00Z,29.8672,-93.9310,0.0,2.4,3.0,2.8,'11111222,11111222,11111222' 
TCOON,ioos:station:TCOON:524:1,2019-06-01T10:36:00Z,29.8672,-93.9310,0.0,2.5,360.0,3.1,'11111222,11144222,11111222' 
TCOON,ioos:station:TCOON:524:1,2019-06-01T10:42:00Z,29.8672,-93.9310,0.0,2.5,344.0,3.0,'11111222,11111222,11111222' 
TCOON,ioos:station:TCOON:524:1,2019-06-01T10:48:00Z,29.8672,-93.9310,0.0,1.9,7.0,2.9,'11111222,11111222,11111222' 
TCOON,ioos:station:TCOON:524:1,2019-06-01T10:54:00Z,29.8672,-93.9310,0.0,1.7,359.0,2.2,'11111222,11111222,11111222' 
TCOON,ioos:station:TCOON:524:1,2019-06-01T11:00:00Z,29.8672,-93.9310,0.0,1.9,16.0,2.4,'11111222,11111222,11111222' 
TCOON,ioos:station:TCOON:524:1,2019-06-01T11:06:00Z,29.8672,-93.9310,0.0,1.7,13.0,2.2,'11111222,11111222,11111222' 
TCOON,ioos:station:TCOON:524:1,2019-06-01T11:12:00Z,29.8672,-93.9310,0.0,2.4,359.0,2.8,'11111222,11111222,11111222' 
TCOON,ioos:station:TCOON:524:1,2019-06-01T11:18:00Z,29.8672,-93.9310,0.0,1.5,6.0,2.8,'11111222,11111222,11111222' 
TCOON,ioos:station:TCOON:524:1,2019-06-01T11:24:00Z,29.8672,-93.9310,0.0,1.5,6.0,2.8,'11111222,11111222,11111222' 
TCOON,ioos:station:TCOON:524:1,2019-06-01T11:30:00Z,29.8672,-93.9310,0.0,1.2,4.0,2.1,'11111222,11111222,11111222' 
TCOON,ioos:station:TCOON:524:1,2019-06-01T11:36:00Z,29.8672,-93.9310,0.0,0.8,44.0,1.3,'11111222,11111222,11111222' 
TCOON,ioos:station:TCOON:524:1,2019-06-01T11:42:00Z,29.8672,-93.9310,0.0,1.0,19.0,1.4,'11111222,11111222,11111222' 
TCOON,ioos:station:TCOON:524:1,2019-06-01T11:48:00Z,29.8672,-93.9310,0.0,1.4,20.0,1.8,'11111222,11111222,11111222' 
TCOON,ioos:station:TCOON:524:1,2019-06-01T11:54:00Z,29.8672,-93.9310,0.0,1.4,16.0,1.8,'11111222,11111222,11111222' 
TCOON,ioos:station:TCOON:524:1,2019-06-01T12:00:00Z,29.8672,-93.9310,0.0,1.7,13.0,2.4,'11111222,11111222,11111222' 
TCOON,ioos:station:TCOON:524:1,2019-06-01T12:06:00Z,29.8672,-93.9310,0.0,1.8,14.0,2.4,'11111222,11111222,11111222' 
TCOON,ioos:station:TCOON:524:1,2019-06-01T12:12:00Z,29.8672,-93.9310,0.0,2.2,7.0,2.6,'11111222,11111222,11111222' 
TCOON,ioos:station:TCOON:524:1,2019-06-01T12:18:00Z,29.8672,-93.9310,0.0,2.8,4.0,3.1,'11111222,11111222,11111222' 
TCOON,ioos:station:TCOON:524:1,2019-06-01T12:24:00Z,29.8672,-93.9310,0.0,2.8,4.0,3.1,'11111222,11111222,11111222' 
TCOON,ioos:station:TCOON:524:1,2019-06-01T12:30:00Z,29.8672,-93.9310,0.0,1.5,21.0,2.6,'11111222,11111222,11111222' 
TCOON,ioos:station:TCOON:524:1,2019-06-01T12:36:00Z,29.8672,-93.9310,0.0,2.2,16.0,2.8,'11111222,11111222,11111222' 
TCOON,ioos:station:TCOON:524:1,2019-06-01T12:42:00Z,29.8672,-93.9310,0.0,2.1,19.0,2.9,'11111222,11111222,11111222' 
TCOON,ioos:station:TCOON:524:1,2019-06-01T12:48:00Z,29.8672,-93.9310,0.0,1.9,20.0,2.7,'11111222,11111222,11111222' 
TCOON,ioos:station:TCOON:524:1,2019-06-01T12:54:00Z,29.8672,-93.9310,0.0,1.7,18.0,2.1,'11111222,11111222,11111222' 
TCOON,ioos:station:TCOON:524:1,2019-06-01T13:00:00Z,29.8672,-93.9310,0.0,2.3,14.0,2.9,'11111222,11111222,11111222' 
TCOON,ioos:station:TCOON:524:1,2019-06-01T13:06:00Z,29.8672,-93.9310,0.0,1.9,11.0,2.5,'11111222,11111222,11111222' 
TCOON,ioos:station:TCOON:524:1,2019-06-01T13:12:00Z,29.8672,-93.9310,0.0,2.4,13.0,3.0,'11111222,11111222,11111222' 
TCOON,ioos:station:TCOON:524:1,2019-06-01T13:18:00Z,29.8672,-93.9310,0.0,2.4,15.0,3.2,'11111222,11111222,11111222' 
TCOON,ioos:station:TCOON:524:1,2019-06-01T13:24:00Z,29.8672,-93.9310,0.0,2.4,15.0,3.2,'11111222,11111222,11111222' 
TCOON,ioos:station:TCOON:524:1,2019-06-01T13:30:00Z,29.8672,-93.9310,0.0,3.0,4.0,3.8,'11111222,11111222,11111222' 
TCOON,ioos:station:TCOON:524:1,2019-06-01T13:36:00Z,29.8672,-93.9310,0.0,2.7,4.0,3.4,'11111222,11111222,11111222' 
TCOON,ioos:station:TCOON:524:1,2019-06-01T13:42:00Z,29.8672,-93.9310,0.0,2.1,7.0,3.0,'11111222,11111222,11111222' 
TCOON,ioos:station:TCOON:524:1,2019-06-01T13:48:00Z,29.8672,-93.9310,0.0,2.0,13.0,2.8,'11111222,11111222,11111222' 
TCOON,ioos:station:TCOON:524:1,2019-06-01T13:54:00Z,29.8672,-93.9310,0.0,2.7,355.0,3.5,'11111222,11111222,11111222' 
TCOON,ioos:station:TCOON:524:1,2019-06-01T14:00:00Z,29.8672,-93.9310,0.0,2.8,9.0,3.8,'11111222,11111222,11111222' 
TCOON,ioos:station:TCOON:524:1,2019-06-01T14:06:00Z,29.8672,-93.9310,0.0,3.6,3.0,4.5,'11111222,11111222,11111222' 
TCOON,ioos:station:TCOON:524:1,2019-06-01T14:12:00Z,29.8672,-93.9310,0.0,3.0,353.0,3.8,'11111222,11111222,11111222' 
TCOON,ioos:station:TCOON:524:1,2019-06-01T14:18:00Z,29.8672,-93.9310,0.0,3.2,6.0,4.2,'11111222,11111222,11111222' 
TCOON,ioos:station:TCOON:524:1,2019-06-01T14:24:00Z,29.8672,-93.9310,0.0,3.2,6.0,4.2,'11111222,11111222,11111222' 
TCOON,ioos:station:TCOON:524:1,2019-06-01T14:30:00Z,29.8672,-93.9310,0.0,2.2,0.0,4.4,'11111222,11111222,11111222' 
TCOON,ioos:station:TCOON:524:1,2019-06-01T14:36:00Z,29.8672,-93.9310,0.0,2.5,1.0,3.1,'11111222,11111222,11111222' 
TCOON,ioos:station:TCOON:524:1,2019-06-01T14:42:00Z,29.8672,-93.9310,0.0,2.2,20.0,3.0,'11111222,11111222,11111222' 
TCOON,ioos:station:TCOON:524:1,2019-06-01T14:48:00Z,29.8672,-93.9310,0.0,1.6,12.0,3.0,'11111222,11111222,11111222' 
TCOON,ioos:station:TCOON:524:1,2019-06-01T14:54:00Z,29.8672,-93.9310,0.0,2.0,10.0,3.0,'11111222,11111222,11111222' 
TCOON,ioos:station:TCOON:524:1,2019-06-01T15:00:00Z,29.8672,-93.9310,0.0,2.1,1.0,3.8,'11111222,11111222,11111222' 
TCOON,ioos:station:TCOON:524:1,2019-06-01T15:06:00Z,29.8672,-93.9310,0.0,2.5,5.0,4.1,'11111222,11111222,11111222' 
TCOON,ioos:station:TCOON:524:1,2019-06-01T15:12:00Z,29.8672,-93.9310,0.0,2.7,350.0,4.3,'11111222,11111222,11111222' 
TCOON,ioos:station:TCOON:524:1,2019-06-01T15:18:00Z,29.8672,-93.9310,0.0,2.3,8.0,3.2,'11111222,11111222,11111222' 
TCOON,ioos:station:TCOON:524:1,2019-06-01T15:24:00Z,29.8672,-93.9310,0.0,2.3,8.0,3.2,'11111222,11111222,11111222' 
TCOON,ioos:station:TCOON:524:1,2019-06-01T15:30:00Z,29.8672,-93.9310,0.0,1.6,31.0,3.1,'11111222,11111222,11111222' 
TCOON,ioos:station:TCOON:524:1,2019-06-01T15:36:00Z,29.8672,-93.9310,0.0,1.7,89.0,3.3,'11111222,11111222,11111222' 
TCOON,ioos:station:TCOON:524:1,2019-06-01T15:42:00Z,29.8672,-93.9310,0.0,2.0,79.0,3.7,'11111222,11111222,11111222' 
TCOON,ioos:station:TCOON:524:1,2019-06-01T15:48:00Z,29.8672,-93.9310,0.0,0.8,25.0,2.1,'11111222,11111222,11111222' 
TCOON,ioos:station:TCOON:524:1,2019-06-01T15:54:00Z,29.8672,-93.9310,0.0,1.2,67.0,2.2,'11111222,11111222,11111222' 
TCOON,ioos:station:TCOON:524:1,2019-06-01T16:00:00Z,29.8672,-93.9310,0.0,2.7,96.0,3.1,'11111222,11111222,11111222' 
TCOON,ioos:station:TCOON:524:1,2019-06-01T16:06:00Z,29.8672,-93.9310,0.0,2.0,83.0,3.4,'11111222,11111222,11111222' 
TCOON,ioos:station:TCOON:524:1,2019-06-01T16:12:00Z,29.8672,-93.9310,0.0,3.2,99.0,4.2,'11111222,11111222,11111222' 
TCOON,ioos:station:TCOON:524:1,2019-06-01T16:18:00Z,29.8672,-93.9310,0.0,2.6,84.0,4.3,'11111222,11111222,11111222' 
TCOON,ioos:station:TCOON:524:1,2019-06-01T16:24:00Z,29.8672,-93.9310,0.0,2.6,84.0,4.3,'11111222,11111222,11111222' 
TCOON,ioos:station:TCOON:524:1,2019-06-01T16:30:00Z,29.8672,-93.9310,0.0,3.0,84.0,3.7,'11111222,11111222,11111222' 
TCOON,ioos:station:TCOON:524:1,2019-06-01T16:36:00Z,29.8672,-93.9310,0.0,2.4,106.0,3.5,'11111222,11111222,11111222' 
TCOON,ioos:station:TCOON:524:1,2019-06-01T16:42:00Z,29.8672,-93.9310,0.0,2.3,116.0,3.4,'11111222,11111222,11111222' 
TCOON,ioos:station:TCOON:524:1,2019-06-01T16:48:00Z,29.8672,-93.9310,0.0,2.6,86.0,3.4,'11111222,11111222,11111222' 
TCOON,ioos:station:TCOON:524:1,2019-06-01T16:54:00Z,29.8672,-93.9310,0.0,2.8,96.0,3.5,'11111222,11111222,11111222' 
TCOON,ioos:station:TCOON:524:1,2019-06-01T17:00:00Z,29.8672,-93.9310,0.0,2.8,97.0,3.6,'11111222,11111222,11111222' 
TCOON,ioos:station:TCOON:524:1,2019-06-01T17:06:00Z,29.8672,-93.9310,0.0,2.4,110.0,3.7,'11111222,11111222,11111222' 
TCOON,ioos:station:TCOON:524:1,2019-06-01T17:12:00Z,29.8672,-93.9310,0.0,3.0,121.0,4.7,'11111222,11111222,11111222' 
TCOON,ioos:station:TCOON:524:1,2019-06-01T17:18:00Z,29.8672,-93.9310,0.0,2.3,103.0,3.9,'11111222,11111222,11111222' 
TCOON,ioos:station:TCOON:524:1,2019-06-01T17:24:00Z,29.8672,-93.9310,0.0,2.3,103.0,3.9,'11111222,11111222,11111222' 
TCOON,ioos:station:TCOON:524:1,2019-06-01T17:30:00Z,29.8672,-93.9310,0.0,2.4,114.0,3.6,'11111222,11111222,11111222' 
TCOON,ioos:station:TCOON:524:1,2019-06-01T17:36:00Z,29.8672,-93.9310,0.0,2.6,128.0,4.2,'11111222,11111222,11111222' 
TCOON,ioos:station:TCOON:524:1,2019-06-01T17:42:00Z,29.8672,-93.9310,0.0,3.1,104.0,4.1,'11111222,11111222,11111222' 
TCOON,ioos:station:TCOON:524:1,2019-06-01T17:48:00Z,29.8672,-93.9310,0.0,2.6,114.0,3.8,'11111222,11111222,11111222' 
TCOON,ioos:station:TCOON:524:1,2019-06-01T17:54:00Z,29.8672,-93.9310,0.0,3.0,105.0,4.1,'11111222,11111222,11111222' 
TCOON,ioos:station:TCOON:524:1,2019-06-01T18:00:00Z,29.8672,-93.9310,0.0,3.2,89.0,3.9,'11111222,11111222,11111222' 
TCOON,ioos:station:TCOON:524:1,2019-06-01T18:06:00Z,29.8672,-93.9310,0.0,2.9,107.0,3.9,'11111222,11111222,11111222' 
TCOON,ioos:station:TCOON:524:1,2019-06-01T18:12:00Z,29.8672,-93.9310,0.0,2.2,107.0,3.4,'11111222,11111222,11111222' 
TCOON,ioos:station:TCOON:524:1,2019-06-01T18:18:00Z,29.8672,-93.9310,0.0,2.6,105.0,3.8,'11111222,11111222,11111222' 
TCOON,ioos:station:TCOON:524:1,2019-06-01T18:24:00Z,29.8672,-93.9310,0.0,2.6,105.0,3.8,'11111222,11111222,11111222' 
TCOON,ioos:station:TCOON:524:1,2019-06-01T18:30:00Z,29.8672,-93.9310,0.0,2.5,113.0,4.1,'11111222,11111222,11111222' 
TCOON,ioos:station:TCOON:524:1,2019-06-01T18:36:00Z,29.8672,-93.9310,0.0,2.7,112.0,3.9,'11111222,11111222,11111222' 
TCOON,ioos:station:TCOON:524:1,2019-06-01T18:42:00Z,29.8672,-93.9310,0.0,2.7,111.0,3.7,'11111222,11111222,11111222' 
TCOON,ioos:station:TCOON:524:1,2019-06-01T18:48:00Z,29.8672,-93.9310,0.0,2.3,112.0,4.0,'11111222,11111222,11111222' 
TCOON,ioos:station:TCOON:524:1,2019-06-01T18:54:00Z,29.8672,-93.9310,0.0,3.1,105.0,4.2,'11111222,11111222,11111222' 
TCOON,ioos:station:TCOON:524:1,2019-06-01T19:00:00Z,29.8672,-93.9310,0.0,3.0,103.0,4.1,'11111222,11111222,11111222' 
TCOON,ioos:station:TCOON:524:1,2019-06-01T19:06:00Z,29.8672,-93.9310,0.0,2.9,105.0,4.0,'11111222,11111222,11111222' 
TCOON,ioos:station:TCOON:524:1,2019-06-01T19:12:00Z,29.8672,-93.9310,0.0,2.5,108.0,4.4,'11111222,11111222,11111222' 
TCOON,ioos:station:TCOON:524:1,2019-06-01T19:18:00Z,29.8672,-93.9310,0.0,2.3,108.0,3.7,'11111222,11111222,11111222' 
TCOON,ioos:station:TCOON:524:1,2019-06-01T19:24:00Z,29.8672,-93.9310,0.0,2.3,108.0,3.7,'11111222,11111222,11111222' 
TCOON,ioos:station:TCOON:524:1,2019-06-01T19:30:00Z,29.8672,-93.9310,0.0,2.5,110.0,3.7,'11111222,11111222,11111222' 
TCOON,ioos:station:TCOON:524:1,2019-06-01T19:36:00Z,29.8672,-93.9310,0.0,2.4,111.0,3.6,'11111222,11111222,11111222' 
TCOON,ioos:station:TCOON:524:1,2019-06-01T19:42:00Z,29.8672,-93.9310,0.0,2.6,98.0,3.4,'11111222,11111222,11111222' 
TCOON,ioos:station:TCOON:524:1,2019-06-01T19:48:00Z,29.8672,-93.9310,0.0,1.5,120.0,2.7,'11111222,11111222,11111222' 
TCOON,ioos:station:TCOON:524:1,2019-06-01T19:54:00Z,29.8672,-93.9310,0.0,2.9,102.0,3.4,'11111222,11111222,11111222' 
TCOON,ioos:station:TCOON:524:1,2019-06-01T20:00:00Z,29.8672,-93.9310,0.0,2.2,107.0,3.5,'11111222,11111222,11111222' 
TCOON,ioos:station:TCOON:524:1,2019-06-01T20:06:00Z,29.8672,-93.9310,0.0,2.8,96.0,3.5,'11111222,11111222,11111222' 
TCOON,ioos:station:TCOON:524:1,2019-06-01T20:12:00Z,29.8672,-93.9310,0.0,3.0,106.0,4.2,'11111222,11111222,11111222' 
TCOON,ioos:station:TCOON:524:1,2019-06-01T20:18:00Z,29.8672,-93.9310,0.0,2.3,114.0,3.5,'11111222,11111222,11111222' 
TCOON,ioos:station:TCOON:524:1,2019-06-01T20:24:00Z,29.8672,-93.9310,0.0,2.3,114.0,3.5,'11111222,11111222,11111222' 